Location: Caltech
(34.1382°N, 118.1253°W)
Time: 04:07:56
(UTC-08:00)

SL-16 R/B - Visible Passes

Search period start: 23 November 2014 00:00
Search period end: 03 December 2014 00:00
Orbit: 843 x 846 km, 71.0° (Epoch: 22 November)

Date Brightness Start Highest point End Pass type
(mag) Time Alt. Az. Time Alt. Az. Time Alt. Az.
23 Nov 4.4 18:57:35 10° N 18:58:08 13° N 18:58:08 13° N visible
24 Nov 3.9 18:43:26 10° N 18:45:00 18° N 18:45:00 18° N visible
25 Nov 3.4 18:29:18 10° N 18:32:06 25° NNE 18:32:06 25° NNE visible
25 Nov 4.9 20:13:37 10° NW 20:14:03 12° NW 20:14:03 12° NW visible
26 Nov 2.9 18:15:09 10° N 18:19:34 32° NE 18:19:34 32° NE visible
26 Nov 4.4 19:59:23 10° NW 20:01:34 20° WNW 20:01:34 20° WNW visible
27 Nov 2.8 18:01:01 10° N 18:06:02 31° ENE 18:07:46 26° E visible
27 Nov 3.8 19:45:09 10° NW 19:49:50 30° W 19:49:50 30° W visible
28 Nov 2.9 17:46:53 10° N 17:51:50 30° ENE 17:56:45 10° ESE visible
28 Nov 3.8 19:30:55 10° NW 19:35:50 31° WSW 19:40:44 10° SSW visible
29 Nov 3.0 17:32:45 10° N 17:37:38 29° ENE 17:42:30 10° ESE visible
29 Nov 3.8 19:16:42 10° NW 19:21:40 32° WSW 19:26:38 10° SSW visible
30 Nov 3.0 17:18:37 10° N 17:23:27 28° ENE 17:28:14 10° ESE visible
30 Nov 3.8 19:02:28 10° NW 19:07:30 34° WSW 19:12:31 10° SSW visible
01 Dec 3.1 17:04:29 10° N 17:09:15 27° ENE 17:13:58 10° ESE visible
01 Dec 3.7 18:48:15 10° NW 18:53:21 35° WSW 18:58:25 10° SSW visible
02 Dec 5.7 06:12:44 10° ESE 06:13:50 11° E 06:14:57 10° E visible
02 Dec 3.7 18:34:02 10° NW 18:39:11 37° WSW 18:44:18 10° S visible
